FW6045 Weather Reports


Display with metric or nautical units.
time (UTC)temp
F
wind
direction
speed
MPH
gust
MPH
rain 1hr
in
rain 24hr
in
rain mn
in
humidity
%
barometer
mb
20260905110104 75 35 13.0 23.0 0.00 0.02 0.02 81 1014.3
20260905104603 76 242 3.0 6.0 0.01 0.02 0.02 76 1012.8
20260905103102 77 298 2.0 7.0 0.02 0.02 0.02 76 1012.2
20260905101602 76 228 0.0 3.0 0.02 0.02 0.02 78 1012.6
20260905100107 76 233 3.0 16.0 0.02 0.02 0.02 80 1013.0
20260905094612 74 212 20.0 40.0 0.01 0.01 0.01 87 1013.3
20260905093101 74 244 10.0 14.0 0.00 0.00 0.00 88 1014.1
20260905091609 77 273 3.0 4.0 0.00 0.00 0.00 85 1012.9
20260905090103 76 272 1.0 3.0 0.00 0.00 0.00 86 1012.4
20260905084607 76 271 2.0 4.0 0.00 0.00 0.00 88 1012.7
20260905083102 75 271 2.0 4.0 0.00 0.00 0.00 90 1012.7
20260905081619 75 206 2.0 3.0 0.00 0.00 0.00 89 1012.5
20260905080107 75 205 2.0 4.0 0.00 0.00 0.00 89 1012.4
20260905074604 75 205 2.0 3.0 0.00 0.00 0.00 90 1012.3
20260905073102 75 205 2.0 4.0 0.00 0.00 0.00 90 1012.3
20260905071606 75 163 1.0 4.0 0.00 0.00 0.00 90 1012.5
20260905070105 76 163 1.0 4.0 0.00 0.00 0.00 88 1012.7
20260905064603 77 163 0.0 0.0 0.00 0.00 0.00 86 1012.9
20260905063118 77 163 0.0 2.0 0.00 0.00 0.00 85 1013.1
20260905061614 77 163 0.0 4.0 0.00 0.00 0.00 85 1013.2
20260905060105 77 163 1.0 4.0 0.00 0.00 0.00 86 1013.4
20260905054601 77 163 1.0 4.0 0.00 0.00 0.00 85 1013.6
20260905053100 78 163 1.0 4.0 0.00 0.00 0.00 83 1013.8
20260905051603 79 163 1.0 2.0 0.00 0.00 0.00 81 1014.0
20260905050106 79 0 0.0 2.0 0.00 0.00 0.00 81 1013.9
20260905044603 79 163 1.0 2.0 0.00 0.00 0.00 81 1013.9
20260905043119 79 163 3.0 5.0 0.00 0.00 0.00 80 1014.0
20260905041602 79 163 2.0 4.0 0.00 0.00 0.00 80 1014.0
20260905040120 79 163 2.0 4.0 0.00 0.00 0.00 80 1014.0
20260905034602 79 0 0.0 1.0 0.00 0.00 0.00 81 1014.2
20260905033104 79 0 0.0 2.0 0.00 0.00 0.00 81 1014.1
20260905031610 79 163 1.0 4.0 0.00 0.00 0.00 81 1014.0
20260905030106 80 163 4.0 5.0 0.00 0.00 0.00 80 1013.9
20260905024605 80 146 2.0 3.0 0.00 0.00 0.00 79 1014.0
20260905023107 80 0 0.0 3.0 0.00 0.00 0.00 78 1014.0
20260905021605 80 67 2.0 4.0 0.00 0.00 0.00 78 1014.0
20260905014604 80 66 0.0 4.0 0.00 0.00 0.00 78 1013.9
20260905013105 80 40 5.0 10.0 0.00 0.00 0.00 78 1013.8
20260905011603 81 67 5.0 10.0 0.00 0.00 0.00 77 1013.8
20260905010107 82 63 4.0 9.0 0.00 0.00 0.00 74 1013.7
20260905004613 83 42 4.0 6.0 0.00 0.00 0.00 73 1013.5
20260905003101 83 59 2.0 4.0 0.00 0.00 0.00 72 1013.4
20260905001605 83 76 2.0 4.0 0.00 0.00 0.00 71 1013.2
20260905000107 84 0 0.0 3.0 0.00 0.00 0.00 70 1013.0
20260904234604 84 0 0.0 0.0 0.00 0.00 0.00 70 1013.1
20260904233107 85 76 1.0 3.0 0.00 0.00 0.00 69 1013.2
20260904231604 85 66 2.0 8.0 0.00 0.00 0.00 69 1012.9
20260904230112 85 94 2.0 9.0 0.00 0.00 0.00 68 1012.9
20260904224604 85 111 8.0 16.0 0.00 0.00 0.00 67 1013.1
20260904223100 87 69 11.0 22.0 0.00 0.00 0.00 63 1013.5
20260904221605 94 16 3.0 8.0 0.00 0.00 0.00 55 1013.9
20260904220115 94 360 3.0 8.0 0.00 0.00 0.00 55 1014.0
20260904214602 94 309 4.0 8.0 0.00 0.00 0.00 57 1013.9
20260904213109 94 290 5.0 8.0 0.00 0.00 0.00 57 1013.8
20260904211613 94 315 4.0 8.0 0.00 0.00 0.00 56 1013.8
20260904210105 94 305 3.0 12.0 0.00 0.00 0.00 59 1013.9
20260904204605 94 279 9.0 12.0 0.00 0.00 0.00 57 1013.9
20260904203108 94 294 5.0 11.0 0.00 0.00 0.00 58 1014.0
20260904201603 94 302 8.0 14.0 0.00 0.00 0.00 56 1014.1
20260904200100 94 280 4.0 12.0 0.00 0.00 0.00 57 1014.1
20260904194615 94 255 8.0 13.0 0.00 0.00 0.00 57 1014.3
20260904193110 94 309 10.0 17.0 0.00 0.00 0.00 55 1014.5
20260904191602 94 316 7.0 11.0 0.00 0.00 0.00 57 1014.6
20260904190103 94 259 9.0 15.0 0.00 0.00 0.00 57 1014.6
20260904184602 93 311 9.0 14.0 0.00 0.00 0.00 57 1015.0
20260904183120 93 298 7.0 15.0 0.00 0.00 0.00 58 1015.1
20260904181603 92 342 7.0 16.0 0.00 0.00 0.00 59 1015.3
20260904180121 93 331 7.0 13.0 0.00 0.00 0.00 57 1015.5
20260904174610 93 336 5.0 13.0 0.00 0.00 0.00 59 1015.9
20260904173104 93 348 5.0 10.0 0.00 0.00 0.00 60 1016.0
20260904171605 92 219 7.0 14.0 0.00 0.00 0.00 60 1016.1
20260904170107 92 301 5.0 11.0 0.00 0.00 0.00 61 1016.0
20260904164607 91 252 6.0 13.0 0.00 0.00 0.00 63 1016.2
20260904163100 91 338 8.0 14.0 0.00 0.00 0.00 63 1016.3
20260904161633 91 302 4.0 10.0 0.00 0.00 0.00 63 1016.4
20260904160106 90 333 5.0 10.0 0.00 0.00 0.00 65 1016.3
20260904154603 90 329 4.0 11.0 0.00 0.00 0.00 66 1016.2
20260904153103 89 320 6.0 9.0 0.00 0.00 0.00 69 1016.2
20260904151610 88 293 4.0 8.0 0.00 0.00 0.00 74 1016.2
20260904150105 87 278 4.0 7.0 0.00 0.00 0.00 76 1016.2
20260904144609 85 257 2.0 7.0 0.00 0.00 0.00 78 1016.0
20260904143102 84 247 2.0 5.0 0.00 0.00 0.00 79 1016.0
20260904141608 83 247 2.0 4.0 0.00 0.00 0.00 81 1016.0
20260904140106 83 241 3.0 5.0 0.00 0.00 0.00 82 1015.8
20260904134609 82 252 2.0 4.0 0.00 0.00 0.00 82 1015.8
20260904133118 81 0 0.0 4.0 0.00 0.00 0.00 84 1015.9
20260904131606 80 0 0.0 0.0 0.00 0.00 0.00 84 1016.0
20260904130101 79 0 0.0 1.0 0.00 0.00 0.00 85 1016.0
20260904124610 78 209 0.0 3.0 0.00 0.00 0.00 88 1016.0
20260904123107 78 208 1.0 3.0 0.00 0.00 0.00 89 1015.8
20260904121604 77 0 0.0 2.0 0.00 0.00 0.00 90 1015.7
20260904120111 77 208 1.0 4.0 0.00 0.00 0.00 91 1015.4
20260904114602 77 208 3.0 4.0 0.00 0.00 0.00 90 1015.3
20260904113105 77 208 2.0 5.0 0.00 0.00 0.00 90 1015.2
20260904111606 77 208 4.0 5.0 0.00 0.00 0.00 91 1015.0